KC0VVH Weather Reports


Display with metric or nautical units.
time (UTC)temp
F
wind
direction
speed
MPH
gust
MPH
rain 1hr
in
rain 24hr
in
rain mn
in
humidity
%
barometer
mb
20260503054503 62 258 3.0 9.0 0.00 0.00 0.00 19 1017.9
20260503053603 62 239 3.0 8.0 0.00 0.00 0.00 19 1017.9
20260503052703 62 245 4.0 10.0 0.00 0.00 0.00 19 1017.9
20260503051803 62 242 4.0 8.0 0.00 0.00 0.00 19 1017.9
20260503050903 62 247 4.0 10.0 0.00 0.00 0.00 20 1017.9
20260503050003 62 249 3.0 8.0 0.00 0.00 0.00 20 1017.9
20260503045403 62 246 3.0 8.0 0.00 0.00 0.00 20 1017.9
20260503044503 63 243 2.0 8.0 0.00 0.00 0.00 21 1017.9
20260503043603 63 245 3.0 7.0 0.00 0.00 0.00 21 1017.9
20260503042703 63 246 3.0 7.0 0.00 0.00 0.00 20 1017.9
20260503041803 63 246 2.0 5.0 0.00 0.00 0.00 20 1017.9
20260503040903 63 248 3.0 7.0 0.00 0.00 0.00 20 1017.9
20260503040003 64 250 3.0 8.0 0.00 0.00 0.00 19 1017.9
20260503035403 64 251 3.0 7.0 0.00 0.00 0.00 19 1017.9
20260503034503 64 252 2.0 5.0 0.00 0.00 0.00 18 1017.9
20260503033624 65 269 3.0 8.0 0.00 0.00 0.00 18 1017.9
20260503032703 65 291 2.0 7.0 0.00 0.00 0.00 17 1017.9
20260503031803 65 293 3.0 8.0 0.00 0.00 0.00 17 1017.9
20260503030924 66 294 2.0 5.0 0.00 0.00 0.00 17 1017.9
20260503030003 66 296 1.0 4.0 0.00 0.00 0.00 18 1017.9
20260503025403 66 297 1.0 5.0 0.00 0.00 0.00 18 1017.9
20260503024503 65 297 0.0 3.0 0.00 0.00 0.00 18 1017.9
20260503023603 65 0 0.0 0.0 0.00 0.00 0.00 19 1017.9
20260503022703 66 0 0.0 0.0 0.00 0.00 0.00 19 1017.9
20260503021803 67 0 0.0 0.0 0.00 0.00 0.00 18 1017.9
20260503020924 68 0 0.0 0.0 0.00 0.00 0.00 17 1017.9
20260503020003 69 297 0.0 4.0 0.00 0.00 0.00 17 1017.9
20260503015403 69 298 1.0 4.0 0.00 0.00 0.00 17 1017.9
20260503014503 70 0 0.0 0.0 0.00 0.00 0.00 17 1017.9
20260503013624 70 283 0.0 4.0 0.00 0.00 0.00 17 1017.9
20260503012703 71 304 1.0 7.0 0.00 0.00 0.00 16 1017.9
20260503011803 72 322 2.0 7.0 0.00 0.00 0.00 16 1017.9
20260503010903 72 360 1.0 6.0 0.00 0.00 0.00 15 1017.9
20260503010003 73 337 2.0 10.0 0.00 0.00 0.00 15 1017.9
20260503005403 73 286 1.0 10.0 0.00 0.00 0.00 15 1017.9
20260503004503 73 302 1.0 9.0 0.00 0.00 0.00 15 1017.9
20260503003603 75 339 1.0 7.0 0.00 0.00 0.00 14 1017.9
20260503002703 76 350 2.0 8.0 0.00 0.00 0.00 14 1017.9
20260503001803 75 309 2.0 8.0 0.00 0.00 0.00 14 1017.9
20260503000903 76 356 3.0 11.0 0.00 0.00 0.00 14 1017.9
20260503000003 76 360 2.0 12.0 0.00 0.00 0.00 14 1017.9
20260502235403 76 1 3.0 12.0 0.00 0.00 0.00 15 1017.9
20260502234503 75 326 3.0 12.0 0.00 0.00 0.00 15 1017.9
20260502233624 76 337 3.0 12.0 0.00 0.00 0.00 14 1017.9
20260502232703 76 310 3.0 12.0 0.00 0.00 0.00 13 1017.9
20260502231803 76 353 2.0 11.0 0.00 0.00 0.00 13 1017.9
20260502230903 76 22 1.0 11.0 0.00 0.00 0.00 14 1017.9
20260502230024 76 359 3.0 13.0 0.00 0.00 0.00 14 1017.9
20260502225403 76 12 5.0 13.0 0.00 0.00 0.00 14 1017.9
20260502224503 76 12 5.0 12.0 0.00 0.00 0.00 14 1017.9
20260502223603 75 14 4.0 11.0 0.00 0.00 0.00 15 1017.9
20260502222703 75 11 4.0 12.0 0.00 0.00 0.00 15 1017.9
20260502221803 74 22 4.0 10.0 0.00 0.00 0.00 15 1017.9
20260502220903 75 19 2.0 9.0 0.00 0.00 0.00 14 1017.9
20260502220024 74 18 3.0 13.0 0.00 0.00 0.00 15 1017.9
20260502215403 75 16 4.0 13.0 0.00 0.00 0.00 14 1017.9
20260502214524 75 16 5.0 12.0 0.00 0.00 0.00 14 1017.9
20260502213603 75 20 4.0 12.0 0.00 0.00 0.00 14 1017.9
20260502212703 75 36 6.0 19.0 0.00 0.00 0.00 15 1017.9
20260502211803 76 9 5.0 12.0 0.00 0.00 0.00 15 1017.9
20260502210903 75 21 4.0 12.0 0.00 0.00 0.00 16 1017.9
20260502210003 74 54 5.0 12.0 0.00 0.00 0.00 16 1017.9
20260502205424 74 55 5.0 10.0 0.00 0.00 0.00 16 1017.9
20260502204503 75 19 2.0 9.0 0.00 0.00 0.00 16 1017.9
20260502203603 73 43 4.0 10.0 0.00 0.00 0.00 18 1017.9
20260502202724 73 44 5.0 10.0 0.00 0.00 0.00 19 1017.9
20260502201803 72 25 4.0 12.0 0.00 0.00 0.00 20 1017.9
20260502200903 72 44 3.0 8.0 0.00 0.00 0.00 19 1017.9
20260502200003 72 43 4.0 10.0 0.00 0.00 0.00 19 1017.9
20260502195403 71 46 4.0 11.0 0.00 0.00 0.00 19 1017.9
20260502194503 72 20 4.0 11.0 0.00 0.00 0.00 20 1017.9
20260502193624 71 24 3.0 11.0 0.00 0.00 0.00 20 1017.9
20260502192703 71 16 4.0 11.0 0.00 0.00 0.00 18 1017.9
20260502191803 71 14 3.0 10.0 0.00 0.00 0.00 19 1017.9
20260502190903 70 10 3.0 10.0 0.00 0.00 0.00 21 1017.9
20260502190003 70 9 3.0 9.0 0.00 0.00 0.00 21 1017.9
20260502185403 71 359 3.0 9.0 0.00 0.00 0.00 19 1017.9
20260502184503 70 26 4.0 10.0 0.00 0.00 0.00 21 1017.9
20260502183603 69 16 4.0 11.0 0.00 0.00 0.00 21 1017.9
20260502182703 69 42 4.0 10.0 0.00 0.00 0.00 22 1017.9
20260502181803 69 31 3.0 9.0 0.00 0.00 0.00 23 1017.9
20260502180903 68 24 3.0 11.0 0.00 0.00 0.00 23 1017.9
20260502163603 62 152 1.0 7.0 0.00 0.00 0.00 29 1017.9
20260502162703 61 163 1.0 7.0 0.00 0.00 0.00 30 1017.9
20260502161803 59 195 3.0 10.0 0.00 0.00 0.00 30 1017.9
20260502160903 59 196 2.0 12.0 0.00 0.00 0.00 31 1017.9
20260502151803 56 180 5.0 13.0 0.00 0.00 0.00 33 1017.9
20260502150903 55 190 4.0 13.0 0.00 0.00 0.00 33 1017.9
20260502123603 50 204 2.0 8.0 0.00 0.00 0.00 37 1014.5
20260502122703 50 204 3.0 9.0 0.00 0.00 0.00 37 1014.5
20260502121803 50 207 3.0 7.0 0.00 0.00 0.00 37 1014.5
20260502120903 50 206 2.0 7.0 0.00 0.00 0.00 36 1014.5
20260502115403 48 204 3.0 10.0 0.00 0.00 0.00 35 1014.5
20260502114503 46 175 1.0 9.0 0.00 0.00 0.00 36 1014.5
20260502113603 45 13 0.0 3.0 0.00 0.00 0.00 35 1014.5
20260502112703 44 0 0.0 1.0 0.00 0.00 0.00 35 1014.5
20260502111803 44 0 0.0 0.0 0.00 0.00 0.00 36 1014.5
20260502110903 44 0 0.0 0.0 0.00 0.00 0.00 37 1014.5
20260502110024 46 0 0.0 0.0 0.00 0.00 0.00 36 1014.5
20260502105403 47 0 0.0 0.0 0.00 0.00 0.00 34 1014.5
20260502104503 48 13 1.0 4.0 0.00 0.00 0.00 30 1014.5
20260502103603 47 13 1.0 4.0 0.00 0.00 0.00 30 1014.5
20260502102703 47 0 0.0 0.0 0.00 0.00 0.00 30 1014.5
20260502101803 49 0 0.0 0.0 0.00 0.00 0.00 29 1014.5
20260502100903 49 13 0.0 3.0 0.00 0.00 0.00 28 1014.5
20260502090903 50 13 0.0 2.0 0.00 0.00 0.00 30 1014.5
20260502070903 55 0 0.0 0.0 0.00 0.00 0.00 23 1014.5
20260502070003 56 13 0.0 4.0 0.00 0.00 0.00 21 1014.5
20260502065403 56 13 1.0 5.0 0.00 0.00 0.00 21 1014.5
20260502064503 56 13 2.0 5.0 0.00 0.00 0.00 21 1014.5
20260502063603 56 13 0.0 2.0 0.00 0.00 0.00 21 1014.5
20260502062724 56 0 0.0 0.0 0.00 0.00 0.00 21 1014.5
20260502061803 56 13 2.0 5.0 0.00 0.00 0.00 21 1014.5
20260502060903 56 13 0.0 4.0 0.00 0.00 0.00 20 1014.5
20260502060003 57 0 0.0 0.0 0.00 0.00 0.00 20 1014.5